Location: Wilkerson Pass
(39.0355°N, 105.5270°W)
Time: 06:06:12
(UTC-06:00)

ISS - Visible Passes

Search period start: 25 June 2018 00:00
Search period end: 05 July 2018 00:00
Orbit: 403 x 407 km, 51.6° (Epoch: 26 June)

Date Brightness Start Highest point End Pass type
(mag) Time Alt. Az. Time Alt. Az. Time Alt. Az.
30 Jun -1.7 04:52:06 10° S 04:54:32 19° SE 04:56:58 10° E visible
02 Jul -3.3 04:43:51 13° SSW 04:46:34 50° SE 04:49:45 10° ENE visible
03 Jul -2.3 03:53:47 23° SSE 03:54:32 25° SE 03:57:16 10° ENE visible
04 Jul -1.0 03:03:39 11° ESE 03:03:39 11° ESE 03:04:07 10° E visible
04 Jul -3.6 04:36:18 17° WSW 04:38:41 61° NW 04:41:57 10° NE visible
